Location: Ward Pound Ridge Reservation
(41.2500°N, 73.6000°W)
Time: 03:55:42
(UTC-04:00)

Vanguard 2 - All Passes

Search period start: 21 July 2018 00:00
Search period end: 31 July 2018 00:00
Orbit: 553 x 2939 km, 32.9° (Epoch: 20 July)

Date Brightness Start Highest point End Pass type
(mag) Time Alt. Az. Time Alt. Az. Time Alt. Az.
21 Jul - 01:59:50 10° W 02:10:34 21° SW 02:19:23 10° S visible
21 Jul - 15:30:40 10° SSE 15:35:58 14° SE 15:42:10 10° ESE daylight
21 Jul - 17:32:50 10° SSW 17:44:16 41° SSE 17:59:39 10° E daylight
21 Jul - 19:40:33 10° WSW 19:55:12 62° S 20:12:42 10° E daylight
21 Jul - 21:50:49 10° W 22:07:31 61° S 22:23:47 10° ESE visible
22 Jul - 00:03:05 10° W 00:18:53 41° SSW 00:32:03 10° SSE visible
22 Jul - 02:20:20 10° WSW 02:27:51 15° SW 02:34:26 10° SSW visible
22 Jul - 15:45:49 10° S 15:53:12 20° SE 16:02:36 10° E daylight
22 Jul - 17:50:10 10° SW 18:01:58 47° SSE 18:18:07 10° E daylight
22 Jul - 19:58:29 10° WSW 20:13:18 64° S 20:30:51 10° E daylight
22 Jul - 22:09:00 10° W 22:25:34 57° SSW 22:41:35 10° SE visible
23 Jul - 00:21:45 10° W 00:36:30 34° SW 00:49:01 10° SSE visible
23 Jul - 16:02:05 10° S 16:10:31 26° SE 16:21:59 10° E daylight
23 Jul - 18:07:43 10° SW 18:19:48 53° SSE 18:36:29 10° E daylight
23 Jul - 20:16:29 10° WSW 20:31:26 64° S 20:48:59 10° ESE visible
23 Jul - 22:27:15 10° W 22:43:33 52° SSW 22:59:13 10° SE visible
24 Jul - 00:40:43 10° W 00:54:01 27° SW 01:05:33 10° S visible
24 Jul - 16:18:53 10° SSW 16:27:57 33° SE 16:40:52 10° E daylight
24 Jul - 18:25:25 10° WSW 18:37:44 58° SSE 18:54:47 10° E daylight
24 Jul - 20:34:32 10° W 20:49:35 63° S 21:07:01 10° ESE visible
24 Jul - 22:45:34 10° W 23:01:27 46° SSW 23:16:39 10° SE visible
25 Jul - 01:00:16 10° W 01:11:28 21° SW 01:21:26 10° S visible
25 Jul - 14:34:21 10° SSE 14:37:52 12° SE 14:41:54 10° ESE daylight
25 Jul - 16:36:02 10° SSW 16:45:31 40° SSE 16:59:29 10° E daylight
25 Jul - 18:43:15 10° WSW 18:55:46 61° S 19:13:03 10° E daylight
25 Jul - 20:52:39 10° W 21:07:42 60° SSW 21:24:56 10° ESE visible
25 Jul - 23:04:03 10° W 23:19:14 39° SSW 23:33:47 10° SSE visible
26 Jul - 01:21:00 10° WSW 01:28:50 15° SW 01:36:05 10° SSW visible
26 Jul - 14:49:23 10° S 14:55:06 18° SE 15:02:30 10° E daylight
26 Jul - 16:53:26 10° SW 17:03:12 46° SSE 17:17:57 10° E daylight
26 Jul - 19:01:10 10° WSW 19:13:51 63° S 19:31:15 10° ESE daylight
26 Jul - 21:10:47 10° W 21:25:46 55° SSW 21:42:42 10° SE visible
26 Jul - 23:22:44 10° W 23:36:56 32° SW 23:50:35 10° SSE visible
27 Jul - 15:05:42 10° S 15:12:25 24° SE 15:21:50 10° E daylight
27 Jul - 17:11:02 10° SW 17:21:02 52° SSE 17:36:20 10° E daylight
27 Jul - 19:19:08 10° WSW 19:31:58 62° S 19:49:23 10° ESE daylight
27 Jul - 21:29:01 10° W 21:43:46 49° SSW 22:00:17 10° SE visible
27 Jul - 23:41:47 10° W 23:54:32 26° SW 00:06:53 10° S visible
28 Jul - 15:22:35 10° SSW 15:29:52 31° SE 15:40:41 10° E daylight
28 Jul - 17:28:45 10° WSW 17:38:57 57° SSE 17:54:39 10° E daylight
28 Jul - 19:37:10 10° W 19:50:05 60° S 20:07:26 10° ESE daylight
28 Jul - 21:47:20 10° W 22:01:42 43° SSW 22:17:37 10° SE visible
29 Jul - 00:01:32 10° W 00:12:06 19° SW 00:22:25 10° S visible
29 Jul - 15:39:48 10° SW 15:47:27 37° SSE 15:59:17 10° E daylight
29 Jul - 17:46:36 10° WSW 17:56:58 59° S 18:12:54 10° E daylight
29 Jul - 19:55:15 10° W 20:08:11 56° SSW 20:25:19 10° ESE daylight
29 Jul - 22:05:50 10° W 22:19:33 36° SSW 22:34:37 10° SSE visible
30 Jul - 00:22:50 10° WSW 00:29:38 13° SW 00:36:21 10° SSW visible
30 Jul - 13:53:30 10° SSE 13:57:34 15° SE 14:02:41 10° ESE daylight
30 Jul - 15:57:16 10° SW 16:05:09 44° SSE 16:17:43 10° E daylight
30 Jul - 18:04:30 10° WSW 18:15:01 60° S 18:31:07 10° ESE daylight
30 Jul - 20:13:23 10° W 20:26:16 51° SSW 20:43:02 10° SE visible
30 Jul - 22:24:36 10° W 22:37:21 29° SW 22:51:11 10° SSE visible
